Disclaimer

Please do not use the information listed here in-flight or in-navigation, as they are not provided to us by the airports but are provided by volunteers, so they might be outdated.

Search


Regions


Airport information page

Radio informations:
KRYVYI RIH TWR - 120.3 MHz
KRYVYI RIH METEO - 125.875 MHz

Airport informations:
Latitude: 48° 02' 36.00" N
Longitude: 033° 12' 36.00" E
Elevation: 408 feet - 124 meters
Operating hours: 24 hour operations
Operating agency: Civil government, landing fees and diplomatic clearance may be required
Timezone: UTC+2(+3DT)
Fuel: N/A

Runway information:
18/36 - 8202 x 138 feet< - >2500 x 42 meters

Recent METARs:
UKDR 160230Z 27005MPS CAVOK M12/M14 Q1002 R36/890532 NOSIG
UKDR 160300Z 28003MPS CAVOK M11/M12 Q1002 R36/890532 NOSIG
UKDR 160330Z 28003MPS CAVOK M11/M12 Q1002 R36/890532 NOSIG

Airport on the map: